Location: 5810 Zion Rd, Cleves, OH 45002, USA
(39.1922°N, 84.7113°W)
Time: 22:05:23
(UTC-05:00)

Vanguard 3 - All Passes

Search period start: 14 December 2019 00:00
Search period end: 24 December 2019 00:00
Orbit: 508 x 3263 km, 33.3° (Epoch: 13 December)

Date Brightness Start Highest point End Pass type
(mag) Time Alt. Az. Time Alt. Az. Time Alt. Az.
14 Dec - 06:54:26 10° SW 06:59:31 35° SSE 07:07:46 10° E visible
14 Dec - 09:04:04 10° WSW 09:11:23 63° S 09:24:41 10° E daylight
14 Dec - 11:15:06 10° W 11:25:03 57° SSW 11:41:42 10° ESE daylight
14 Dec - 13:27:50 10° W 13:39:41 35° SSW 13:55:50 10° SSE daylight
14 Dec - 15:47:42 10° WSW 15:54:13 13° SW 16:01:13 10° SSW daylight
15 Dec - 05:42:51 10° S 05:46:16 18° SE 05:50:50 10° E visible
15 Dec - 07:51:08 10° WSW 07:57:03 53° SSE 08:07:31 10° E daylight
15 Dec - 10:01:34 10° W 10:09:47 61° S 10:24:30 10° ESE daylight
15 Dec - 12:13:12 10° W 12:23:52 44° SSW 12:40:17 10° SE daylight
15 Dec - 14:28:10 10° WSW 14:38:29 21° SW 14:50:59 10° S daylight
16 Dec - 06:38:37 10° SW 06:43:19 36° SSE 06:50:50 10° E visible
16 Dec - 08:48:22 10° WSW 08:55:04 61° S 09:07:15 10° ESE daylight
16 Dec - 10:59:17 10° W 11:08:23 52° SSW 11:23:48 10° SE daylight
16 Dec - 13:12:06 10° W 13:22:42 30° SSW 13:37:18 10° SSE daylight
17 Dec - 05:26:47 10° SSW 05:30:03 19° SE 05:34:23 10° ESE visible
17 Dec - 07:35:27 10° WSW 07:40:53 53° SSE 07:50:21 10° E daylight
17 Dec - 09:45:50 10° W 09:53:22 57° S 10:06:50 10° ESE daylight
17 Dec - 11:57:26 10° W 12:07:06 38° SSW 12:22:02 10° SE daylight
17 Dec - 14:13:11 10° WSW 14:21:30 17° SW 14:31:29 10° S daylight
18 Dec - 06:22:51 10° SW 06:27:12 37° SSE 06:34:01 10° E visible
18 Dec - 08:32:41 10° WSW 08:38:50 58° S 08:49:52 10° ESE daylight
18 Dec - 10:43:33 10° W 10:51:50 46° SSW 11:05:51 10° SE daylight
18 Dec - 12:56:38 10° WSW 13:05:52 25° SSW 13:18:30 10° SSE daylight
19 Dec - 05:10:47 10° SSW 05:13:56 20° SSE 05:18:02 10° ESE visible
19 Dec - 07:19:47 10° WSW 07:24:48 52° S 07:33:19 10° E visible
19 Dec - 09:30:10 10° W 09:37:02 52° S 09:49:12 10° ESE daylight
19 Dec - 11:41:50 10° W 11:50:28 32° SSW 12:03:40 10° SSE daylight
19 Dec - 13:59:12 10° WSW 14:04:40 13° SW 14:10:54 10° SSW daylight
20 Dec - 06:07:07 10° SW 06:11:10 38° SSE 06:17:19 10° E visible
20 Dec - 08:17:04 10° WSW 08:22:41 54° S 08:32:35 10° ESE daylight
20 Dec - 10:27:56 10° W 10:35:25 39° SSW 10:47:51 10° SE daylight
20 Dec - 12:41:30 10° WSW 12:49:11 20° SSW 12:59:21 10° S daylight
21 Dec - 04:54:49 10° SSW 04:57:53 22° SSE 05:01:45 10° ESE visible
21 Dec - 07:04:10 10° WSW 07:08:46 50° S 07:16:23 10° ESE visible
21 Dec - 09:14:33 10° W 09:20:48 45° S 09:31:36 10° SE daylight
21 Dec - 11:26:26 10° WSW 11:33:57 26° SSW 11:45:08 10° SSE daylight
22 Dec - 03:44:12 10° SSE 03:44:42 10° SSE 03:45:12 10° SE visible
22 Dec - 05:51:23 10° SW 05:55:12 38° SSE 06:00:44 10° E visible
22 Dec - 08:01:29 10° WSW 08:06:37 49° S 08:15:23 10° ESE daylight
22 Dec - 10:12:27 10° W 10:19:06 33° SSW 10:29:48 10° SE daylight
22 Dec - 12:27:02 10° WSW 12:32:38 15° SSW 12:39:35 10° S daylight
23 Dec - 04:38:51 10° SSW 04:41:54 24° SSE 04:45:36 10° ESE visible
23 Dec - 06:48:32 10° WSW 06:52:49 47° S 06:59:33 10° ESE visible
23 Dec - 08:59:01 10° W 09:04:39 38° SSW 09:14:02 10° SE daylight
23 Dec - 11:11:19 10° WSW 11:17:35 21° SSW 11:26:22 10° SSE daylight
